Flag for U.S.A. Weather past 2 weeks in Modesto, California, U.S.A.

Now
56 °F

Clear.


Feels Like: 56 °F
Forecast: 52 / 83 °F
Wind: 3 mph from Southeast

Location: Modesto City-County-Sham Field

Current Time: Mar 29, 2015 at 4:10:53 AM

Latest Report: Mar 29, 2015 at 2:53 AM


Visibility: 10 mi

Pressure: 30.06 "Hg

Humidity: 67%

Dew point: 45 °F

Location of ModestoLocation

Historic Weather in Modesto — Graph

°F

Modesto temperature yesterday

Maximum temperature yesterday: 82 °F (at 3:53 PM)
Minimum temperature yesterday: 54 °F (at 6:53 AM)
Average temperature yesterday: 67 °F

Past Weeks' High & Low Weather Summary

 TemperatureHumidityPressure
High86 °F (Mar 27, 2:53 PM)93% (Mar 20, 7:53 AM)30.29 "Hg (Mar 20, 7:53 AM)
Low47 °F (Mar 19, 6:53 AM)16% (Mar 28, 5:53 PM)29.96 "Hg (Mar 18, 5:53 PM)
Average65 °F56%30.09 "Hg
* Reported Mar 14 2:53 AM — Mar 29 2:53 AM, Modesto, Weather by CustomWeather, © 2015

Note: Actual official high and low records may vary slightly from our data, if they occured in-between our weather recording intervals... More about our weather records

Advertising

Modesto weather history for previous 24 hours

 ConditionsComfort  
Time TempWeatherWind HumidityBarometerVisibility
2:53 AM
Sun, Mar 29
56 °FClear.3 mph67%30.06 "Hg10 mi
1:53 AM60 °FClear.5 mph58%30.07 "Hg10 mi
12:53 AM60 °FClear.No wind58%30.07 "Hg10 mi
11:53 PM
Sat, Mar 28
64 °FClear.3 mph45%30.06 "Hg10 mi
10:53 PM64 °FClear.8 mph47%30.04 "Hg10 mi
9:53 PM67 °FClear.8 mph41%30.04 "Hg10 mi
8:53 PM71 °FClear.9 mph31%30.04 "Hg10 mi
7:53 PM74 °FSunny.9 mph26%30.03 "Hg10 mi
6:53 PM79 °FSunny.15 mph19%30.02 "Hg10 mi
5:53 PM81 °FSunny.15 mph16%30.02 "Hg10 mi
4:53 PM82 °FSunny.18 mph18%30.02 "Hg10 mi
3:53 PM82 °FSunny.16 mph24%30.03 "Hg10 mi
2:53 PM80 °FSunny.14 mph28%30.06 "Hg10 mi
1:53 PM79 °FSunny.16 mph29%30.09 "Hg10 mi
12:53 PM75 °FSunny.14 mph34%30.12 "Hg10 mi
11:53 AM71 °FSunny.16 mph42%30.15 "Hg10 mi
10:53 AM68 °FSunny.17 mph55%30.16 "Hg10 mi
9:53 AM64 °FSunny.18 mph61%30.14 "Hg10 mi
8:53 AM60 °FSunny.15 mph67%30.13 "Hg10 mi
7:53 AM57 °FClear.10 mph72%30.13 "Hg10 mi
6:53 AM54 °FClear.8 mph80%30.12 "Hg10 mi
5:53 AM55 °FClear.7 mph77%30.10 "Hg10 mi
4:53 AM57 °FClear.N/A72%30.10 "Hg10 mi
Weather by CustomWeather, © 2015

See weather overviewHow to use our weather pages